Miscellaneous Local Product
Issued by NWS North Platte, NE

Home | Current Version | Previous Version | Text Only | Print | Product List | Glossary On
Versions: 1 2 3 4 5 6 7 8 9 10 11 12 13 14 15 16 17 18 19 20 21 22 23 24 25 26 27 28 29 30 31 32 33 34 35 36 37 38 39 40 41 42 43 44 45 46 47 48 49 50
000
AXUS43 KLBF 211310
MISLBF


WESTERN AND NORTH CENTRAL NEBRASKA HOURLY WEATHER ROUNDUP
NATIONAL WEATHER SERVICE NORTH PLATTE NE
800 AM CDT MON JUL 21 2014

***STATIONS NOT REPORTING VARIABLES SUCH AS SKY/WEATHER OR
PRESSURE ARE PROVIDED BY THE NEBRASKA DEPARTMENT OF
ROADS...RAWS...AND APRS NETWORKS...AND ARE NOT UNDER
NATIONAL WEATHER SERVICE QUALITY CONTROL***

...OBSERVATIONS IN AND NEAR THE EASTERN PANHANDLE OF NEBRASKA...

CITY           SKY/WX    TMP DP  RH WIND       PRES   REMARKS
PINE RIDGE     MOSUNNY   70  54  56 CALM      29.89R
CHADRON        SUNNY     70  52  52 SW6       29.88R
ALLIANCE       MOSUNNY   68  54  60 W5        29.96R
SIDNEY         PTSUNNY   74  47  38 W9        30.04R
WHITECLAY        N/A     68  53  58 SE5         N/A
RUSHVILLE        N/A     69  53  56 SW9         N/A
GORDON           N/A     72  52  49 S13         N/A
CRESCENT LAKE    N/A     70  51  50 S3          N/A
LISCO            N/A     72  55  53 CALM        N/A
BIG SPRINGS      N/A     70  57  62 W3          N/A
$$

...OBSERVATIONS IN NORTH CENTRAL NEBRASKA...

CITY           SKY/WX    TMP DP  RH WIND       PRES   REMARKS
VALENTINE      PTSUNNY   70  66  87 CALM      29.83R
THEDFORD       PTSUNNY   72  58  61 W3        29.89R
AINSWORTH      PTSUNNY   73  67  82 SW6       29.83R
O`NEILL        FOG       72  69  90 S6        29.81R VSB 1
BROKEN BOW     PTSUNNY   69  66  90 SW6       29.87R
BROWNLEE         N/A     74  57  54 SW9         N/A
SPRINGVIEW       N/A     69  67  95 CALM        N/A
DUNNING          N/A     71  66  85 N5          N/A
ROSE             N/A     75  74  96 S5          N/A
NEWPORT          N/A     69  68  99 CALM        N/A
SARGENT          N/A     67  67  99 CALM        N/A
COMSTOCK         N/A     80  76  86 S3          N/A
CHAMBERS         N/A     75  73  93 S3          N/A
$$

...OBSERVATIONS IN SOUTHWEST NEBRASKA AND FAR NORTHEAST COLORADO...

CITY           SKY/WX    TMP DP  RH WIND       PRES   REMARKS
WRAY             N/A     70  54  56 W8        29.99S
HOLYOKE        FAIR      73  54  49 W7        29.98S
IMPERIAL       CLOUDY    73  56  54 W5        29.96R
OGALLALA       CLOUDY    66  57  73 CALM      29.94S
NORTH PLATTE   PTSUNNY   68  61  78 VRB3      29.91R
MCCOOK         CLOUDY    72  59  63 W6        29.91R
LEXINGTON      PTSUNNY   69  65  88 NW3       29.89R
PAXTON           N/A     68  58  69 CALM        N/A
SUTHERLAND       N/A     76  63  64 W7          N/A
BRADY            N/A     68  59  74 CALM        N/A
GOTHENBURG       N/A     69  58  67 CALM        N/A
CALLAWAY         N/A     64  62  95 SW3         N/A
$$

...NORTH PLATTE AREA...

CITY           SKY/WX    TMP DP  RH WIND       PRES   REMARKS
AIRPORT        PTSUNNY   68  61  78 VRB3      29.91R
$$

...SOME WEATHER OBSERVATIONS FROM AROUND THE REGION...

CITY           SKY/WX    TMP DP  RH WIND       PRES   REMARKS
DENVER         PTSUNNY   73  44  35 SW14      30.12R
LARAMIE        SUNNY     64  43  46 SW17      30.25R
CHEYENNE       SUNNY     68  44  42 W20       30.16R
SCOTTSBLUFF    MOSUNNY   66  54  65 CALM      29.99R
RAPID CITY     PTSUNNY   71  64  78 E5        29.79F
PIERRE         MOSUNNY   73  71  93 E6        29.74R FOG
WINNER         FAIR      74  71  91 S5        29.76S
SIOUX FALLS    PTSUNNY   74  70  87 SE8       29.83R
OMAHA          PTSUNNY   75  69  81 S15       29.86R
GRAND ISLAND   MOSUNNY   78  70  76 S14       29.84R
KANSAS CITY    MOSUNNY   75  68  78 S15       29.99R
WICHITA        PTSUNNY   73  71  93 S12       29.98R FOG
HAYS           SUNNY     73  63  68 S8        29.95R
LIBERAL        SUNNY     75  63  64 S13       30.03R
GOODLAND       PTSUNNY   74  63  68 SW12      29.99R
$$



USA.gov is the U.S. government's official web portal to all federal, state and local government web resources and services.